Theta_e
308 308 308 308 308 308 307 307 307 307 306 306 306 306 305 305 305 305 305 305 305 305 305 305 304 304 304 304 304 303 303 303 303 303 303 303 302 302 302 302 302 301 301 301 301 301 301 301 301 302 302 303 303 303 304 304 305 306 306 307 307 308 308 308 307 307 307 307 307 306 306 306 305 305 305 305 305 305 305 305 305 305 305 305 305
307 307 307 307 307 307 306 306 306 305 306 306 306 305 305 305 305 305 304 303 303 302 301 301 300 300 300 299 299 298 298 298 298 298 298 298 298 299 299 300 300 300 300 300 300 300 300 300 300 300 300 300 300 301 301 302 303 303 304 304 305 305 306 306 306 305 306 306 306 305 305 305 305 305 304 305 305 305 304 304 304 304 304 304 304
306 306 306 306 305 305 305 305 305 305 305 304 303 303 302 302 301 300 299 298 297 297 296 295 295 295 294 294 294 293 293 293 293 293 294 294 294 294 295 296 296 297 297 297 297 297 298 298 298 298 298 298 298 298 299 299 300 301 301 302 303 303 304 304 305 304 304 304 304 304 304 304 304 304 304 304 304 304 304 304 303 303 303 303 303
304 305 305 305 305 305 305 304 303 302 300 299 298 297 296 296 295 295 294 294 294 293 293 293 293 293 293 292 292 292 292 292 292 292 292 293 293 293 293 294 294 295 295 294 294 295 295 296 295 295 296 297 297 297 297 297 298 299 299 300 301 301 302 302 303 303 303 303 303 303 303 303 303 304 303 304 303 303 303 303 302 302 302 302 301
304 304 304 304 303 302 301 299 298 296 295 294 294 294 293 293 293 293 293 293 293 293 292 292 292 292 292 292 292 292 291 291 291 291 291 292 292 292 292 292 293 293 293 293 293 294 294 294 294 294 295 295 295 295 296 296 297 298 298 299 299 300 300 300 301 302 302 301 302 302 302 302 302 302 303 303 302 302 302 301 301 301 300 300 300
303 302 301 300 298 296 295 294 294 294 293 293 293 293 293 293 293 293 292 292 292 292 292 292 292 292 291 291 291 291 291 291 291 291 291 291 291 291 291 291 291 291 291 291 292 292 292 293 293 293 294 294 294 294 295 295 296 297 297 297 298 298 299 299 300 300 300 300 300 301 301 301 301 301 301 301 301 301 301 300 300 300 299 298 299
299 297 296 295 294 293 293 293 293 293 292 292 292 292 292 292 292 292 292 292 291 291 291 291 291 291 291 291 291 291 291 291 291 290 290 290 290 290 290 290 290 290 290 290 290 291 291 291 292 292 293 293 293 294 294 295 295 296 296 296 296 297 298 298 298 299 299 299 299 300 300 300 300 300 300 301 300 300 299 299 298 298 297 297 298
295 294 294 293 293 292 292 292 292 292 292 292 292 292 292 292 292 291 291 291 291 291 291 291 291 291 290 290 290 291 291 290 290 290 290 290 290 290 290 290 290 290 290 290 290 290 290 291 291 291 292 292 292 293 293 294 295 295 295 296 296 296 296 297 297 298 298 298 298 299 299 299 299 299 299 299 298 298 298 297 296 297 297 296 297
293 293 293 292 292 292 292 292 292 292 292 291 291 291 291 291 291 291 291 291 291 291 290 290 291 291 291 291 290 291 291 290 290 290 290 290 289 289 289 289 289 289 289 290 290 290 290 290 290 291 291 291 291 292 292 293 294 294 294 295 295 295 295 296 296 297 297 297 298 298 298 298 298 298 299 299 298 297 298 297 295 296 296 295 295
293 292 292 292 291 292 292 291 291 291 291 291 291 291 290 291 291 291 291 290 290 290 290 290 290 290 290 290 290 290 290 290 290 290 290 290 289 289 289 289 289 289 289 289 289 290 290 290 290 290 290 291 291 291 292 292 293 293 293 294 294 295 294 295 295 295 296 296 297 297 297 297 297 298 298 298 298 298 298 296 294 295 294 293 293
292 292 291 291 291 291 291 291 291 290 290 290 290 290 290 290 290 290 290 290 290 290 290 290 290 290 290 290 290 290 290 290 290 290 290 290 289 289 289 288 289 289 289 289 289 289 289 289 290 290 290 290 291 291 291 292 292 292 293 293 293 294 294 294 294 294 295 295 295 296 296 296 297 297 297 297 298 298 298 296 295 294 293 292 293
292 291 291 291 291 291 290 290 290 290 290 290 290 290 290 290 290 290 290 290 290 290 290 290 290 289 289 289 289 289 289 289 289 289 289 289 289 288 288 288 288 288 288 288 288 288 289 289 289 289 289 290 290 290 291 291 292 292 292 292 293 294 294 294 294 294 294 294 294 295 295 295 296 296 296 296 297 297 297 297 295 294 293 293 292
291 291 290 290 290 290 290 290 290 290 290 290 289 290 289 290 289 289 289 289 289 289 289 289 289 289 289 288 288 288 288 288 288 288 288 288 288 288 288 288 288 288 288 288 288 288 288 288 288 289 289 289 289 290 290 290 291 291 292 292 293 293 294 294 294 294 294 294 294 294 294 294 295 295 295 296 296 296 296 296 295 294 293 293 293
290 290 290 290 290 289 289 289 289 289 289 289 289 289 289 289 289 289 289 289 289 289 289 289 289 288 288 288 288 288 288 288 288 287 287 287 287 287 287 287 287 287 287 287 288 288 288 288 288 288 288 288 288 289 289 290 290 291 291 292 292 292 293 293 293 293 293 294 293 294 294 294 294 294 295 295 295 295 295 295 295 294 293 293 293
290 290 289 289 289 289 289 289 289 289 289 289 289 289 289 289 288 288 288 288 288 288 288 288 288 287 287 287 287 287 287 287 287 287 287 287 287 287 287 287 287 287 287 287 287 287 287 287 288 288 288 288 288 288 289 289 290 290 290 291 291 291 291 292 292 292 293 293 293 293 293 293 293 294 294 294 294 294 295 295 295 295 293 293 292
289 289 289 289 289 289 289 289 289 289 289 289 289 288 288 288 288 288 287 287 287 287 287 287 287 287 287 287 287 287 287 287 287 287 287 287 287 286 287 287 287 287 287 287 287 287 287 287 287 287 288 288 288 288 288 289 289 289 290 290 290 291 291 291 291 291 292 292 292 292 292 292 293 293 293 294 294 294 294 294 294 294 292 291 291
288 288 288 288 289 289 288 288 289 288 288 288 288 288 288 287 287 287 287 287 287 287 287 287 287 287 287 287 286 287 287 287 286 286 287 286 286 286 286 286 286 286 286 286 287 287 287 287 287 287 287 287 287 288 288 288 289 289 290 290 290 290 290 290 290 291 291 291 291 292 292 292 292 292 293 293 293 294 294 293 293 293 291 290 290
288 288 288 288 288 288 288 288 288 288 288 287 287 287 287 287 287 286 286 286 286 286 286 287 287 287 287 287 286 286 287 287 286 286 286 286 285 285 286 286 286 286 286 286 286 286 286 286 286 286 287 287 287 287 288 288 289 289 289 289 289 289 289 290 290 290 290 291 291 291 291 292 292 292 292 292 293 293 293 293 293 292 291 290 290
287 287 288 288 288 288 288 287 287 287 287 287 286 286 286 286 286 286 286 286 286 286 286 286 287 287 287 287 286 286 286 287 286 285 285 285 284 284 285 285 285 285 285 285 285 285 285 285 285 286 286 286 287 287 288 288 288 289 288 288 289 289 289 289 290 290 290 290 290 291 291 291 291 291 292 292 292 292 293 292 292 292 291 290 290
287 287 287 287 287 287 287 287 287 287 286 286 286 286 286 286 286 286 286 286 286 286 286 286 287 287 286 286 286 285 285 285 285 284 284 283 283 283 284 284 284 284 284 284 285 285 285 285 285 286 286 286 286 286 287 287 287 287 288 288 288 288 289 289 289 290 290 290 290 290 290 290 291 291 291 291 291 292 292 291 291 291 290 290 290
286 286 286 286 286 286 286 286 286 286 286 286 286 285 285 285 285 285 286 286 286 286 286 286 286 286 286 285 284 284 284 283 283 283 282 282 282 283 283 283 283 284 284 284 285 285 285 285 285 285 284 284 284 284 285 285 286 286 287 287 287 287 287 288 288 289 289 290 290 290 290 290 290 290 290 290 290 291 291 291 291 290 290 290 290
286 286 286 286 286 286 285 285 285 285 285 285 285 285 285 285 285 286 286 286 286 285 284 284 283 284 284 284 283 283 283 282 282 281 281 281 281 282 283 283 283 283 284 284 284 284 284 283 283 282 282 283 283 284 284 285 285 286 286 286 286 286 286 287 287 287 288 289 289 290 290 290 290 290 290 290 290 290 290 290 290 290 290 290 290
286 286 286 285 285 285 285 285 285 285 285 284 284 285 286 286 286 286 285 285 284 282 281 281 281 281 282 283 283 282 281 281 281 280 280 280 280 281 282 282 282 282 282 282 282 282 282 282 281 282 282 283 283 284 284 284 284 284 284 285 285 285 286 286 286 287 287 288 288 289 290 290 290 290 290 290 290 290 289 289 289 289 289 289 289
286 285 285 285 284 284 284 285 284 284 284 285 285 286 286 286 285 285 283 281 280 280 279 279 279 279 280 281 281 281 280 279 279 279 279 279 280 280 280 280 281 281 281 281 281 281 281 281 282 282 283 283 283 283 283 283 283 283 283 284 284 285 285 286 286 286 287 287 288 289 289 289 290 290 290 290 289 289 289 289 288 288 288 287 287
285 284 284 284 284 284 284 284 284 284 284 285 286 286 285 284 283 282 280 279 279 278 278 278 278 278 278 278 279 279 279 278 278 278 279 278 279 279 279 279 280 280 280 280 280 281 281 281 282 282 282 283 283 283 283 283 283 283 283 284 285 285 286 286 286 287 287 287 288 288 289 289 289 289 290 289 289 288 288 287 286 286 285 285 285
284 284 284 284 284 284 284 284 284 285 285 285 285 284 283 281 280 280 279 279 278 278 277 277 277 277 277 277 277 278 278 278 278 278 278 278 278 278 279 279 279 279 279 279 280 280 280 281 281 282 282 282 283 283 283 283 283 283 284 285 285 286 286 286 286 287 287 287 288 288 289 289 289 289 289 288 288 287 286 285 284 283 283 283 283
283 283 283 283 283 283 284 285 285 285 285 285 284 283 281 279 278 279 279 278 277 277 276 276 276 276 276 276 276 277 277 277 277 277 277 277 278 278 278 278 278 278 279 279 279 280 280 281 282 282 282 282 283 283 283 283 283 284 284 285 285 285 286 286 287 287 287 287 287 288 288 289 288 288 288 287 286 285 284 284 283 281 280 281 280
282 283 283 283 283 284 284 284 284 284 284 283 282 281 280 279 278 278 277 277 276 276 276 276 276 276 276 276 276 276 276 276 276 277 277 277 278 278 277 278 278 278 278 279 279 280 280 281 281 281 281 281 282 282 282 283 283 284 284 284 285 285 286 287 287 287 287 287 287 288 288 288 287 287 286 285 284 283 282 282 281 279 279 279 276
282 282 283 283 283 283 283 283 283 282 282 281 280 279 278 278 277 277 277 276 275 275 275 275 275 275 275 275 275 275 275 276 276 277 277 277 277 277 277 277 277 278 278 278 279 279 279 280 280 280 280 280 281 281 282 283 283 284 284 285 285 286 286 287 287 287 287 287 287 287 288 287 286 285 284 282 281 281 280 280 279 278 277 276 274
282 282 283 282 282 282 282 281 281 280 279 279 279 279 279 278 277 276 276 276 275 275 275 274 275 275 275 275 275 275 275 276 276 276 276 276 276 276 277 277 277 277 278 278 278 278 278 278 279 279 279 280 280 281 282 283 283 284 284 285 285 286 286 287 287 287 287 287 287 287 287 287 285 283 282 280 279 279 278 278 278 277 276 274 273
282 282 281 281 281 280 280 280 279 278 277 277 277 277 278 278 277 276 276 275 274 274 274 274 274 274 274 274 274 274 274 275 275 275 275 275 276 276 276 276 276 277 277 277 277 277 277 278 278 279 279 280 281 282 282 283 283 284 284 285 285 286 286 286 287 287 287 287 287 287 287 286 284 282 281 279 278 277 277 277 277 276 275 274 273
281 280 280 280 279 279 279 278 278 277 276 275 274 273 274 275 276 276 275 275 274 274 273 273 273 273 273 273 273 273 273 273 274 274 274 275 275 275 275 275 276 276 276 276 276 276 277 277 278 279 279 280 281 282 282 282 283 283 284 284 285 285 286 286 286 286 286 286 287 286 286 285 283 282 280 279 277 277 276 276 276 275 274 273 272
280 279 279 279 279 279 278 277 276 274 273 272 272 271 271 271 272 273 274 274 273 273 273 273 272 272 272 272 272 272 273 273 273 273 273 274 274 274 275 275 275 275 275 275 275 276 276 277 277 278 279 280 281 281 281 281 282 283 284 284 285 285 285 286 286 286 286 286 286 286 286 284 282 280 279 277 277 276 276 275 275 274 273 272 271
279 280 279 279 278 278 276 275 273 271 270 270 270 271 271 270 270 270 271 271 271 271 272 272 271 271 271 271 271 272 272 272 272 273 273 273 274 274 274 274 274 274 274 274 275 275 276 276 277 278 279 280 280 280 281 281 282 282 283 284 284 285 285 285 285 286 286 286 286 286 285 283 281 279 278 277 276 276 275 275 274 273 272 271 270
279 279 279 278 277 276 274 272 271 270 270 270 271 271 271 270 270 269 269 269 269 269 270 270 270 270 270 270 270 271 271 271 272 272 272 273 273 274 274 273 273 273 274 274 275 275 276 277 278 278 279 279 278 279 280 280 281 282 283 283 284 284 285 285 285 285 285 285 285 285 284 282 280 279 277 276 276 275 275 274 273 272 272 271 270
279 278 278 276 275 273 271 270 270 271 271 272 271 271 270 269 269 269 268 268 268 268 269 269 270 269 269 269 269 269 270 270 271 271 272 272 272 273 272 272 273 273 273 274 274 275 276 277 277 277 276 276 276 277 277 278 280 281 282 283 283 284 284 285 285 285 285 285 285 284 283 281 279 278 277 276 276 275 274 274 273 272 271 270 269
277 277 276 274 272 272 271 271 271 272 272 271 270 270 269 269 268 268 268 268 268 268 268 268 269 269 269 269 269 268 268 269 270 270 270 271 271 271 271 271 272 272 272 272 273 274 274 274 274 273 273 273 274 275 276 278 279 281 281 282 283 283 284 284 284 284 284 284 284 283 282 280 278 277 276 276 275 275 274 273 272 272 271 270 269
276 275 273 271 271 271 272 272 272 271 271 270 269 269 268 268 268 268 268 268 268 268 268 268 268 268 268 268 268 268 268 268 269 269 269 269 269 269 269 269 270 270 270 271 271 271 271 271 270 270 271 272 273 274 276 277 279 280 281 281 282 282 283 283 283 283 284 283 283 282 280 279 277 276 276 276 275 274 273 273 272 271 270 270 269
274 272 271 271 271 271 272 271 271 270 269 269 269 268 268 268 268 268 267 267 267 267 267 267 267 267 267 267 267 267 268 268 268 267 267 268 268 268 268 268 268 268 269 269 269 269 269 268 268 268 269 270 272 273 275 276 277 278 279 280 280 281 281 281 282 282 282 282 281 280 279 277 277 276 276 275 275 274 273 272 271 270 270 269 269
272 271 270 270 270 270 270 270 269 269 268 268 268 268 268 267 267 267 267 267 267 267 267 267 267 267 267 267 267 267 267 267 267 266 267 267 267 267 267 267 267 267 267 267 267 267 267 267 267 267 268 269 270 272 274 275 275 276 278 278 279 279 280 280 280 281 281 280 280 279 278 277 276 276 276 275 274 273 272 271 270 270 270 269 268
271 270 270 270 270 269 269 269 269 268 268 268 268 267 267 267 267 267 267 266 266 266 266 266 266 267 266 266 266 267 267 266 266 266 266 266 266 266 266 266 266 266 265 265 265 265 265 265 266 267 267 268 269 270 272 273 274 275 276 277 277 278 278 279 279 279 279 279 278 277 277 276 276 275 275 274 274 273 272 271 270 270 269 268 267
270 270 270 270 269 269 269 268 268 268 268 268 267 267 267 267 267 266 266 266 266 266 266 266 266 266 266 266 266 266 265 265 265 265 265 265 265 265 265 265 265 265 264 264 264 264 264 264 265 266 266 266 267 269 270 271 272 273 275 275 276 277 277 277 278 278 278 278 277 277 276 276 276 275 275 274 273 272 271 271 270 269 268 267 267
270 270 270 269 268 268 268 268 267 267 267 267 267 267 267 267 266 266 266 266 266 266 266 265 265 265 265 265 265 265 265 264 264 264 264 264 264 264 264 264 264 264 264 264 263 263 263 263 264 264 265 265 266 267 268 269 270 272 273 274 275 276 276 276 276 277 277 277 277 276 276 275 275 274 274 273 273 272 271 270 269 268 267 266 266
270 270 269 268 268 267 267 267 267 267 267 267 267 267 267 266 266 266 266 265 265 265 265 265 265 265 265 265 265 264 264 264 264 264 264 264 264 264 264 264 264 264 264 264 264 263 263 263 263 264 264 264 265 265 267 268 270 271 272 273 274 274 275 275 275 276 276 276 276 276 275 275 274 274 273 273 272 271 270 269 268 267 266 265 265
269 269 269 268 267 267 267 266 267 267 267 267 267 267 266 266 265 265 265 265 265 265 265 265 265 264 264 264 264 264 264 264 264 264 264 264 264 264 264 264 264 264 264 265 265 265 264 263 263 264 264 264 265 265 266 268 269 271 271 271 272 273 274 274 275 275 275 276 276 275 275 274 274 273 273 272 272 271 270 269 268 267 266 265 265
269 269 268 267 267 267 266 266 266 266 266 266 266 266 266 265 265 265 265 265 265 264 264 264 264 264 264 264 264 264 264 263 263 263 263 263 264 264 264 264 264 264 264 265 266 266 265 264 264 264 264 264 265 266 266 268 269 270 270 270 271 272 273 273 274 274 275 275 275 275 274 274 273 273 272 272 271 270 269 268 268 267 266 266 265
268 268 267 267 267 267 266 266 266 265 265 265 265 265 265 264 264 264 264 264 264 264 264 264 264 263 263 263 263 263 263 263 263 263 263 263 263 264 264 264 264 264 265 265 266 266 267 266 265 264 264 265 266 267 267 268 269 269 269 269 270 271 272 272 273 274 274 274 274 274 274 273 273 272 272 271 270 270 269 268 268 267 267 266 266
268 267 267 267 267 266 266 265 265 265 265 265 264 264 264 264 264 264 263 263 263 263 263 263 263 263 263 263 263 263 263 263 263 263 263 264 264 264 264 265 265 265 265 265 266 266 267 267 267 265 265 266 267 268 269 270 269 269 268 269 270 270 271 272 273 273 273 274 274 274 274 273 272 272 271 271 270 270 269 268 268 268 267 266 265
267 267 267 267 266 266 266 265 265 265 265 264 264 264 264 263 263 263 263 263 263 263 263 263 262 262 262 262 262 262 262 262 263 263 263 264 264 265 265 265 265 265 265 265 266 266 266 267 267 267 266 266 268 269 270 270 270 270 269 269 269 270 271 272 272 273 273 273 274 274 274 273 272 272 271 271 271 270 270 270 269 268 267 266 265
266 266 266 266 266 266 265 265 265 265 264 264 264 263 263 263 263 263 263 263 263 263 263 263 262 262 262 262 262 262 261 262 262 262 263 263 264 264 265 265 265 266 266 266 266 266 266 266 267 267 266 266 267 268 269 270 270 270 270 270 270 271 271 272 272 273 273 273 273 273 273 273 272 272 271 271 272 272 271 270 269 268 267 266 264
266 266 266 266 266 265 265 265 265 265 264 264 264 263 263 263 263 263 263 263 263 263 263 263 262 262 262 262 261 261 261 261 261 262 262 263 263 264 264 264 265 265 266 266 266 266 266 266 266 267 267 267 267 267 268 268 269 269 269 270 270 271 272 272 272 273 273 273 273 273 273 273 273 273 272 273 273 273 272 270 269 268 267 265 264
Wind_Speed
18 18 17 16 16 16 15 15 15 15 15 15 15 15 14 14 14 14 14 14 14 15 15 15 15 15 15 15 14 15 15 15 14 14 14 14 14 15 15 16 17 19 20 21 21 20 21 22 25 26 25 25 27 28 29 29 29 29 28 29 31 29 29 29 19 22 43 47 35 34 35 35 37 37 35 36 36 34 35 36 36 37 39 40 41
19 19 18 18 19 19 19 19 18 18 18 18 18 18 17 17 16 16 16 16 15 15 15 15 15 15 15 15 15 16 16 17 17 18 18 18 18 18 18 18 19 20 21 22 23 22 22 23 25 27 25 24 26 27 29 30 28 30 30 29 32 32 29 31 28 21 33 46 41 34 35 36 38 38 36 35 37 35 35 35 34 36 39 40 40
20 21 22 22 22 22 22 21 21 20 21 21 20 19 19 18 17 17 16 16 15 15 15 15 15 15 15 16 16 17 18 18 19 19 20 20 20 20 21 21 21 22 23 24 25 24 24 25 26 27 26 26 27 28 28 30 29 29 32 30 31 35 33 32 33 28 29 42 46 38 33 34 36 37 35 35 35 34 34 35 35 37 40 40 41
23 23 24 24 24 24 24 23 22 22 22 21 20 19 18 17 17 16 16 16 16 16 16 16 16 16 17 17 18 18 19 20 21 21 21 21 22 22 23 23 24 24 25 26 27 27 27 27 29 29 28 28 29 30 29 29 29 29 30 31 31 34 35 32 34 34 31 36 45 43 36 34 37 38 35 34 35 35 36 38 38 40 42 41 42
24 25 26 26 25 24 24 23 22 22 21 20 19 19 18 17 16 16 16 16 16 16 16 16 17 17 18 18 19 20 21 22 22 23 23 23 24 24 25 26 26 27 28 29 29 30 30 31 32 31 30 30 31 32 31 30 30 29 29 31 31 32 34 33 33 36 35 34 41 47 42 36 37 40 36 34 35 37 37 38 40 41 41 40 40
25 26 26 26 25 24 23 22 22 21 20 19 19 18 17 16 16 16 15 16 16 16 17 17 18 19 19 19 20 21 22 22 23 24 24 25 25 26 26 27 28 28 29 31 31 31 32 33 34 33 32 33 34 34 34 33 32 31 30 31 33 32 33 33 32 33 35 36 39 43 44 40 37 38 37 34 34 35 35 37 39 39 38 38 39
26 26 26 26 25 24 23 22 21 20 19 18 17 16 16 16 15 15 15 15 16 17 17 18 19 19 20 20 21 23 24 25 25 25 26 27 27 28 28 29 30 31 32 33 33 34 35 35 36 36 35 35 37 37 36 36 35 34 33 32 33 33 32 33 32 31 32 34 36 37 40 41 39 36 35 34 33 33 32 32 33 35 34 35 38
27 26 26 26 25 23 22 21 20 19 18 17 16 16 15 15 15 15 15 16 17 18 19 20 20 21 22 23 24 25 27 27 28 28 29 30 30 31 32 32 34 35 36 36 36 36 37 38 38 38 38 38 38 38 38 38 37 37 37 34 33 33 33 33 32 30 30 31 32 34 35 37 38 34 32 31 28 29 31 30 31 34 33 31 35
27 26 25 25 23 22 21 19 18 17 16 16 15 15 15 15 15 16 16 17 18 19 20 21 23 23 24 25 26 28 29 30 30 30 31 32 33 34 35 35 36 37 38 39 40 40 40 41 41 41 41 40 40 40 40 39 38 39 41 38 35 34 34 33 31 29 28 27 29 31 30 31 34 31 28 29 28 30 33 30 30 35 33 31 34
26 25 24 23 21 20 19 18 17 16 15 15 15 15 15 15 16 16 17 17 19 20 21 22 24 25 26 27 28 29 30 30 31 31 32 33 35 36 36 37 37 38 39 41 42 43 42 42 43 43 42 42 42 42 42 41 40 40 42 42 40 37 35 34 32 29 27 25 27 28 25 26 32 31 29 33 33 32 32 29 28 31 28 25 28
25 24 23 22 20 19 18 17 16 15 15 15 15 15 15 15 16 16 17 18 19 20 22 23 24 25 26 27 28 29 30 31 31 33 33 34 35 37 38 39 39 39 40 40 42 44 45 44 44 44 42 42 42 42 42 42 42 42 43 43 43 41 38 36 35 32 28 26 28 30 26 27 34 35 33 35 34 31 31 30 27 26 22 17 16
25 23 22 20 19 18 17 16 15 15 15 15 15 15 15 15 16 16 17 19 20 21 23 24 25 26 27 28 28 29 30 31 32 33 34 35 36 37 38 40 41 41 41 41 43 45 46 46 46 45 43 41 41 42 42 42 43 43 43 44 44 44 43 41 40 38 33 29 29 31 31 32 35 37 35 33 32 31 30 29 28 26 24 20 16
24 22 20 19 17 17 15 15 15 14 14 14 14 14 15 15 16 17 18 20 21 23 24 25 26 27 28 29 29 30 31 32 33 34 35 36 37 37 38 40 41 42 43 43 44 45 46 46 47 48 47 43 41 40 40 42 44 43 43 44 44 44 44 43 43 42 40 38 34 36 40 39 37 38 38 34 31 29 27 27 28 28 26 25 25
22 21 19 18 16 16 15 14 14 14 13 13 13 14 15 16 17 18 19 21 22 24 25 26 27 27 29 30 31 32 33 33 34 35 35 36 37 37 38 40 41 42 43 43 44 46 46 45 45 48 51 49 45 41 40 42 44 44 44 43 43 43 42 42 42 41 41 43 42 44 47 46 42 43 44 39 33 32 30 27 27 28 29 29 32
21 19 18 17 15 15 14 13 13 13 12 12 13 14 15 16 17 19 20 21 22 24 25 26 27 29 30 31 33 35 35 34 35 35 35 35 36 37 39 40 41 42 44 44 45 45 45 44 44 46 50 51 49 44 41 42 43 45 46 45 44 43 43 43 41 38 39 43 45 47 50 50 49 48 47 44 40 39 38 36 34 33 31 29 29
20 18 17 16 14 14 13 12 12 12 11 12 13 14 15 16 17 19 20 21 23 24 25 26 28 30 31 32 33 36 36 34 34 35 35 35 35 38 39 40 40 41 44 46 46 45 44 42 42 44 47 49 50 47 44 42 42 44 45 46 45 45 45 45 41 38 40 43 45 47 48 49 50 49 49 47 45 43 40 36 35 34 27 21 21
19 17 16 15 14 13 12 11 10 11 11 12 13 14 15 16 18 19 21 22 24 25 27 28 29 30 32 32 32 35 37 36 33 34 36 35 36 37 39 40 40 41 43 46 47 45 44 42 41 43 45 47 48 48 45 42 41 41 42 43 44 45 47 46 40 37 39 41 42 45 47 48 49 49 49 47 46 45 38 30 30 30 22 13 12
18 16 15 14 12 11 10 10 9 10 11 12 13 14 15 16 18 19 21 23 24 25 27 29 29 30 31 33 33 34 38 39 35 34 35 36 35 36 37 38 39 40 42 45 47 46 45 44 43 42 42 44 45 46 44 42 39 38 37 38 40 43 46 45 40 37 38 38 39 41 43 45 46 46 46 46 45 45 40 33 33 30 21 15 12
17 16 14 13 11 10 9 9 9 10 11 12 13 14 15 17 18 20 21 23 24 26 27 30 32 32 32 34 35 35 37 40 38 34 34 35 34 34 35 36 37 39 42 45 47 47 46 45 44 42 41 41 41 41 41 40 39 38 37 36 37 39 42 42 39 39 39 38 37 38 38 40 40 41 42 43 43 44 43 41 38 31 23 21 18
16 15 13 12 11 9 8 8 9 10 10 11 12 14 15 17 18 20 22 23 25 27 29 30 33 35 34 34 35 35 35 38 38 36 34 34 34 33 34 34 35 37 40 42 44 45 45 45 45 42 39 38 39 40 40 41 41 40 39 36 35 36 40 41 41 41 41 40 40 39 39 38 37 37 38 39 40 42 43 42 40 34 28 25 22
16 14 13 11 9 8 8 8 9 9 10 11 12 14 15 17 19 21 23 25 27 29 31 32 34 36 36 35 35 35 34 35 36 36 35 35 33 31 31 32 33 35 37 39 40 40 41 42 44 44 44 44 44 44 43 43 43 43 41 38 38 40 42 42 42 42 42 41 40 39 38 36 35 35 35 36 37 39 40 40 39 36 33 30 25
15 13 12 10 9 8 8 8 9 9 10 12 13 14 15 17 20 22 24 27 29 29 30 31 32 35 37 36 34 34 35 35 35 35 35 35 32 28 28 30 30 31 34 36 38 38 40 43 47 49 49 49 48 47 45 45 45 44 43 43 43 44 43 41 41 40 40 40 38 35 34 33 31 31 32 33 35 37 37 37 37 35 35 36 32
14 12 11 9 9 8 8 8 8 9 11 12 13 15 16 18 21 23 25 27 27 28 28 28 30 34 37 39 38 36 36 36 36 36 35 34 32 28 28 28 28 29 32 36 38 41 44 46 49 50 49 48 48 48 47 48 48 46 46 47 46 45 44 41 38 37 37 37 36 33 32 31 30 29 31 31 32 32 32 32 33 33 33 35 34
13 11 10 9 8 7 7 8 8 9 11 12 14 16 18 20 22 23 24 24 24 25 27 27 29 32 35 38 40 39 36 35 35 36 36 35 33 30 29 30 31 31 33 36 39 41 44 45 46 47 48 48 49 50 51 52 51 49 49 48 47 46 42 38 35 34 33 33 31 30 31 31 31 30 31 30 28 28 28 27 28 29 28 27 27
12 11 10 8 8 6 6 7 8 9 11 13 15 17 19 20 22 22 23 23 23 25 26 26 27 29 31 33 37 40 40 38 37 38 37 36 34 33 33 34 34 34 35 37 39 41 43 44 45 46 48 49 50 52 52 52 52 52 52 49 46 43 38 33 32 31 29 29 29 29 29 32 32 31 29 28 25 24 24 22 21 20 20 20 18
11 10 9 7 7 6 5 6 7 9 11 13 15 17 18 19 20 21 22 22 22 23 24 24 25 27 28 31 35 40 42 40 39 39 40 39 38 38 38 37 36 36 37 38 40 42 43 43 44 45 46 48 49 49 48 49 51 52 50 45 41 37 33 31 31 28 26 28 30 29 29 31 31 29 26 24 23 23 21 20 18 16 17 17 16
11 9 8 7 6 5 5 6 8 10 11 13 15 16 17 17 18 19 20 20 20 20 21 22 24 26 28 31 34 38 40 39 38 39 40 42 43 44 43 41 40 39 38 38 40 43 44 44 44 44 44 45 46 46 45 46 46 45 44 42 39 36 34 33 32 28 27 31 33 31 31 31 29 26 23 22 22 22 21 21 20 19 19 20 19
11 9 8 6 5 5 6 7 9 10 12 14 15 16 17 16 16 17 16 16 18 20 21 22 23 25 28 30 33 36 39 39 37 37 40 42 44 45 45 44 43 41 40 41 43 45 45 44 43 42 41 42 43 43 42 41 41 41 41 41 40 38 36 33 30 28 29 32 32 31 31 29 27 24 22 20 20 21 21 22 22 22 23 23 21
11 9 7 6 5 6 6 8 9 10 12 13 14 14 14 15 15 16 14 12 14 17 19 21 23 24 26 28 28 30 36 40 40 39 39 40 41 42 42 42 41 41 41 42 44 45 44 41 40 39 38 39 40 39 39 40 40 40 39 39 39 37 33 29 27 28 30 30 28 27 27 27 25 22 18 17 17 19 21 22 24 24 22 21 20
10 8 7 6 6 6 7 7 8 10 11 13 14 15 15 14 15 15 14 12 13 14 16 18 20 21 25 27 27 26 30 36 39 39 40 40 41 42 42 41 40 39 40 41 42 42 39 36 36 35 35 35 36 36 37 38 38 37 37 38 37 35 31 28 27 28 30 28 26 26 26 25 21 18 17 16 17 18 20 21 23 23 21 21 21
10 8 7 6 7 7 7 8 8 9 10 12 14 18 20 20 18 16 15 15 16 17 16 16 16 17 20 25 29 30 30 31 33 35 37 38 39 41 43 43 42 40 40 39 37 36 36 35 36 36 34 32 32 33 35 37 37 37 37 37 37 35 31 28 27 28 28 27 26 25 26 23 20 18 18 18 18 18 18 18 20 20 20 22 23
10 9 8 7 7 7 7 7 8 8 9 11 13 16 20 24 24 21 19 19 19 18 18 20 21 20 19 22 28 33 35 35 35 35 36 35 36 38 40 42 42 40 39 36 32 31 33 34 34 36 35 32 30 33 36 38 37 36 35 34 36 35 30 28 29 29 29 28 26 25 25 23 20 19 19 19 19 18 18 18 18 19 18 19 21
10 9 8 7 6 6 6 6 6 7 8 10 12 14 17 21 24 26 27 26 22 18 19 23 25 25 23 22 24 28 32 34 36 37 38 37 37 37 37 38 38 37 35 34 32 31 32 32 33 35 35 33 34 37 38 37 37 37 36 35 35 34 32 32 32 31 29 28 27 26 25 22 19 17 17 18 19 19 19 18 18 20 20 19 18
9 8 7 6 6 5 5 5 4 5 6 8 11 14 15 17 19 23 28 30 28 24 24 26 28 28 29 28 25 24 26 28 31 34 37 38 38 37 36 36 35 34 32 31 31 31 32 34 35 35 34 35 37 39 38 37 38 39 39 37 36 34 34 33 31 29 28 27 27 26 23 19 18 18 18 18 17 17 18 18 19 20 20 19 19
8 7 7 7 6 5 4 3 3 4 6 8 11 13 14 16 17 18 21 25 27 28 30 31 30 30 31 31 30 28 27 27 29 30 32 34 34 35 35 35 36 35 34 32 32 32 33 33 33 34 35 37 39 38 37 38 40 40 38 37 36 35 35 33 30 28 27 27 26 24 19 17 18 20 20 19 19 18 17 18 19 20 21 21 22
8 8 8 7 6 5 4 3 3 4 6 9 10 11 12 14 15 17 18 20 22 26 30 33 34 34 31 30 32 33 32 30 30 30 29 29 29 30 31 33 35 36 35 34 34 33 32 30 31 35 39 40 40 38 37 38 40 40 40 39 38 36 35 32 30 29 28 27 24 20 16 16 18 19 19 18 18 18 17 18 18 19 21 23 23
9 9 9 8 6 5 5 4 4 5 6 8 8 10 11 12 13 15 17 19 21 24 27 31 34 36 35 34 35 35 34 33 31 28 25 24 26 26 27 28 30 32 33 34 33 31 31 32 34 37 40 40 40 39 38 38 39 40 40 39 37 35 33 32 32 31 28 25 20 16 15 16 18 19 19 17 16 16 17 19 19 19 21 23 23
10 10 9 8 7 6 5 4 4 5 5 6 7 8 10 11 13 15 16 19 21 22 25 27 29 31 34 37 38 38 37 36 34 31 29 28 27 27 26 27 28 29 29 30 30 30 31 34 37 37 38 38 38 38 39 39 40 39 38 37 35 34 33 32 31 28 24 20 16 13 14 15 16 18 18 18 18 18 19 20 22 21 21 22 22
12 11 10 8 7 6 5 4 4 4 4 4 6 7 9 11 12 14 16 18 20 21 22 24 26 27 30 35 37 38 37 35 35 36 36 35 32 30 30 30 30 29 29 30 31 31 33 35 37 37 37 37 37 37 37 39 40 39 38 36 34 32 31 29 26 22 19 15 11 10 12 14 15 17 17 18 19 20 21 22 23 24 23 21 20
13 12 10 9 7 6 5 4 4 3 3 3 5 6 8 10 12 14 16 18 19 20 21 22 24 27 29 30 32 32 33 33 33 34 35 35 35 34 33 31 30 30 31 33 34 35 36 39 40 39 37 37 37 35 36 38 39 38 36 34 31 30 28 25 21 17 13 9 7 8 11 14 16 17 17 18 19 21 23 23 22 23 24 23 22
13 12 11 10 8 7 6 5 4 2 1 2 4 6 7 9 11 14 16 17 19 20 21 21 23 25 27 27 26 26 27 29 31 32 32 33 34 35 34 32 32 33 33 35 36 38 39 40 40 39 37 37 36 34 34 36 36 34 33 32 30 28 26 22 18 13 8 4 5 9 12 15 17 18 18 19 20 22 23 24 23 23 24 24 27
14 13 12 10 9 8 7 5 4 2 1 1 3 5 7 9 11 13 15 17 18 20 21 22 23 24 25 25 24 24 24 26 28 29 30 31 32 33 33 33 34 34 34 35 36 37 38 38 38 37 37 36 35 33 33 34 34 33 32 30 28 26 23 19 15 10 4 2 6 11 13 15 17 19 20 21 23 24 24 24 23 24 26 29 33
14 13 11 10 9 8 6 5 4 3 1 1 3 5 6 8 10 12 14 16 18 19 20 22 24 25 26 26 25 24 25 26 26 28 29 30 30 32 33 34 35 35 35 35 34 34 35 36 37 36 35 34 34 33 32 33 33 32 30 29 27 24 21 17 13 8 2 3 8 12 15 16 18 20 21 23 24 24 24 23 24 25 28 31 33
14 12 11 10 9 7 6 5 4 2 1 2 4 5 6 8 10 12 14 16 18 18 20 22 24 25 26 27 27 26 26 26 27 27 28 29 30 31 33 34 35 36 36 36 35 33 33 34 35 35 35 34 33 33 32 32 31 29 28 27 26 23 20 16 12 7 2 5 9 13 16 18 20 21 22 23 24 24 24 24 25 26 27 28 27
13 12 11 10 8 7 6 5 4 3 2 3 4 5 6 8 10 12 14 16 17 19 20 21 23 25 26 27 27 27 27 27 27 27 27 28 29 31 32 34 35 35 35 35 35 34 33 33 33 34 35 35 35 33 32 30 28 26 25 24 23 21 19 17 12 6 3 6 10 14 16 18 20 21 22 22 24 25 25 25 26 26 26 26 25
14 12 11 9 8 7 6 5 4 4 3 4 5 6 7 9 11 12 14 15 17 18 20 21 23 24 25 26 27 27 27 28 28 28 28 28 28 30 32 33 34 34 34 34 34 35 34 33 32 33 34 35 35 34 32 30 28 26 24 22 20 19 17 14 10 6 4 6 10 13 16 18 20 21 22 22 23 24 24 24 25 25 26 26 25
14 12 11 9 8 7 5 5 4 4 4 4 6 7 9 10 12 13 14 15 17 18 19 21 23 24 25 26 26 27 27 28 28 28 28 28 28 29 31 32 33 34 34 33 33 34 35 34 33 32 32 32 33 34 34 32 29 26 23 22 20 18 15 12 8 4 3 5 9 13 16 18 20 21 22 22 23 24 24 24 24 24 25 25 25
14 13 11 10 8 7 6 6 5 5 5 6 7 9 10 12 13 14 15 16 17 18 19 21 23 24 25 26 26 26 27 27 28 28 28 28 28 29 30 31 32 33 33 33 33 33 33 33 32 31 30 31 32 33 34 33 31 28 25 22 19 17 15 12 8 4 3 4 7 11 15 18 20 20 21 22 24 25 25 24 23 24 24 24 24
14 13 11 10 9 8 7 6 6 6 7 7 9 10 11 12 13 14 15 16 17 18 19 21 23 24 25 26 26 26 27 28 28 28 28 28 28 29 29 30 30 31 31 32 32 32 31 31 30 30 30 31 32 32 33 33 32 31 28 25 21 17 14 12 9 6 3 3 6 10 14 17 19 20 21 22 23 24 24 24 23 23 23 24 24
14 12 11 10 9 7 7 6 7 7 8 8 10 11 11 12 13 14 15 16 17 18 19 21 22 23 25 25 26 26 27 28 28 28 28 28 28 28 28 29 29 30 30 30 30 30 30 30 29 29 29 29 30 30 30 31 31 31 29 26 23 19 15 13 10 8 5 2 4 9 13 16 19 20 21 21 21 21 21 21 22 22 23 24 24
13 12 10 9 8 7 7 7 8 8 9 9 10 11 11 13 14 14 15 16 17 19 20 21 22 23 24 25 25 26 26 27 27 27 27 27 27 27 28 28 28 28 29 29 29 29 29 28 28 28 28 28 28 28 28 28 27 27 26 26 25 23 19 16 13 10 6 2 3 8 12 15 17 18 18 18 18 18 19 20 21 22 23 23 24
Wind_Direction
132 132 131 131 129 127 126 123 121 120 116 110 104 99 95 91 88 83 78 74 69 65 60 55 52 48 44 40 34 29 24 20 17 11 6 1 354 347 341 336 332 329 327 326 323 317 308 304 303 302 300 296 292 290 288 286 284 281 278 275 271 267 263 260 257 272 280 281 279 279 282 285 285 284 283 283 281 279 277 276 274 273 272 272 272
128 128 128 127 124 121 120 117 115 113 110 106 102 98 95 91 89 85 81 76 71 67 61 56 52 48 44 39 34 30 24 20 18 15 10 6 2 358 352 346 341 337 333 332 329 325 317 311 311 312 308 301 296 293 290 288 286 282 278 275 272 270 265 262 262 268 279 282 282 281 283 283 283 283 282 281 281 281 279 276 275 276 275 273 272
125 126 124 121 119 118 116 113 113 111 108 104 100 97 95 91 88 84 80 74 68 64 58 53 50 46 43 38 33 29 24 21 18 14 10 6 2 359 354 348 344 339 335 333 331 327 322 316 315 316 312 304 299 297 294 290 287 283 280 276 272 272 268 262 262 265 272 280 283 283 283 282 280 281 281 280 280 279 277 277 278 280 279 275 273
122 122 121 118 117 117 115 113 112 108 104 101 97 95 91 88 84 79 75 69 63 59 54 50 47 43 40 35 30 25 21 18 16 12 7 2 357 354 351 346 342 337 332 331 329 326 321 316 316 317 311 304 301 300 297 293 288 284 281 279 274 273 271 265 261 262 266 276 281 282 283 282 281 282 282 280 279 277 276 277 278 279 277 274 273
122 121 120 118 116 114 112 111 108 104 101 97 94 90 87 83 79 73 69 64 59 55 50 45 41 37 33 29 24 21 17 14 12 9 4 360 355 350 346 342 338 334 330 328 326 323 319 315 315 315 310 304 302 302 299 296 291 286 282 281 278 275 275 270 264 263 263 268 276 282 283 282 281 282 281 279 278 278 276 276 277 276 273 270 270
123 121 119 117 114 111 110 108 105 101 98 95 91 87 83 77 73 68 63 58 53 48 42 38 34 30 28 24 19 16 13 11 8 5 1 356 352 347 342 339 334 331 328 326 324 320 316 314 313 312 308 303 302 302 300 297 294 288 283 282 281 278 276 273 269 265 263 264 271 278 282 283 281 281 281 279 277 276 277 277 276 272 268 268 270
123 119 118 115 111 109 108 105 103 99 95 92 88 83 78 73 68 63 58 53 47 41 36 32 29 26 22 19 15 12 10 7 4 1 358 353 348 344 340 337 334 331 328 325 323 319 316 314 312 309 306 303 301 301 299 296 293 289 285 283 282 279 275 273 271 266 264 266 269 272 278 281 281 280 281 281 277 272 270 271 273 272 267 266 269
122 119 117 114 110 108 106 103 100 96 92 88 83 78 73 67 62 58 52 46 40 34 30 26 22 20 17 14 11 8 5 4 0 357 353 349 346 342 338 336 332 329 327 324 321 319 316 313 311 308 306 304 301 300 298 295 291 289 287 283 280 277 274 272 271 268 265 265 268 271 275 278 279 279 279 277 271 267 265 261 263 269 269 267 269
122 120 116 112 109 107 105 101 97 93 89 85 79 73 67 61 56 51 45 39 34 29 24 20 16 13 11 8 6 4 2 0 357 354 350 346 343 339 336 333 330 326 324 322 319 317 315 312 310 308 306 304 302 299 297 294 289 286 286 284 278 275 274 272 270 268 266 265 267 270 272 273 275 277 275 269 264 266 268 261 256 263 267 266 268
122 119 115 111 110 108 104 99 95 90 85 78 72 66 59 53 46 41 37 32 27 23 19 15 12 8 6 3 1 360 359 356 354 351 347 344 340 336 332 328 326 323 320 318 315 313 311 309 307 306 303 301 299 298 296 293 289 285 285 285 279 273 271 271 271 268 265 265 267 270 270 271 272 272 270 269 268 269 268 259 253 260 263 263 266
121 118 114 112 111 107 103 98 92 87 79 71 64 57 50 44 38 34 30 26 22 18 14 11 8 5 1 359 357 355 354 352 350 347 344 341 337 332 329 325 323 320 316 313 311 309 308 306 304 303 301 299 297 296 294 292 289 286 284 283 280 274 269 268 269 269 266 264 266 269 268 268 271 272 270 271 272 269 265 260 254 254 253 253 263
121 117 114 113 111 106 102 96 89 82 73 65 57 49 42 36 32 28 23 21 17 13 10 7 5 1 358 355 352 350 349 347 345 343 340 337 335 330 326 323 320 317 314 311 308 307 306 305 304 302 299 297 296 295 293 291 289 286 283 282 279 275 271 267 265 266 266 265 266 267 266 267 270 271 270 271 272 270 267 261 254 249 247 247 249
121 117 114 113 110 104 99 93 85 76 67 59 51 44 37 29 25 22 19 16 12 8 6 3 0 358 354 351 347 345 345 344 342 340 338 335 333 329 324 320 317 314 312 310 307 306 305 304 304 303 301 299 297 295 293 292 291 288 285 282 279 276 273 269 265 264 263 263 263 264 265 266 268 269 270 271 272 272 269 261 254 250 246 245 249
120 118 115 112 107 102 95 87 79 71 62 54 44 38 32 24 20 18 14 11 7 5 2 358 356 354 350 347 343 341 342 342 340 338 336 334 331 327 322 319 316 312 310 309 306 305 304 303 302 302 302 302 299 297 295 294 293 291 288 285 282 279 277 273 268 264 262 260 259 261 264 266 267 269 272 273 272 271 269 265 262 257 252 252 255
120 118 116 110 105 98 90 81 74 65 56 48 38 32 26 20 16 14 11 8 5 1 358 355 352 351 348 345 341 339 340 341 339 337 335 333 330 326 322 318 315 312 310 309 306 304 303 303 301 300 300 300 300 299 297 295 294 292 290 287 285 283 280 276 272 267 263 261 259 260 264 267 268 270 273 275 273 271 270 269 268 267 264 261 258
120 118 115 108 102 95 86 78 70 61 51 42 33 26 22 17 12 10 7 4 1 358 355 353 351 348 346 344 340 338 338 339 339 337 336 334 331 327 323 319 316 313 311 310 308 306 305 303 302 300 299 299 300 300 299 297 294 292 290 289 288 287 284 282 279 273 269 266 265 265 267 269 270 272 273 274 273 272 272 271 268 267 264 258 253
120 117 112 105 99 93 84 76 67 56 46 37 29 22 18 15 10 6 2 359 358 357 353 351 349 346 344 343 340 337 337 339 339 338 337 335 332 328 324 320 317 313 312 311 310 308 307 306 304 302 300 300 301 303 303 301 296 292 290 290 290 289 288 288 287 281 276 273 271 271 271 271 272 273 274 274 273 272 271 267 263 262 254 242 250
121 117 112 105 100 93 84 74 63 52 41 33 26 19 14 11 7 3 0 357 356 356 352 348 347 345 343 342 340 337 336 338 339 338 336 334 331 328 324 320 317 314 313 312 311 310 308 308 306 304 302 302 303 305 305 304 300 296 294 293 292 291 291 292 293 289 285 281 277 275 274 273 272 272 272 271 271 270 267 263 262 261 247 233 247
123 119 113 107 102 94 84 72 58 48 39 30 23 15 11 8 5 2 0 358 356 355 353 348 345 345 343 342 340 338 336 337 338 337 334 332 330 328 324 321 317 315 314 312 311 311 309 309 308 306 306 306 306 307 307 305 303 300 298 296 291 289 291 294 294 292 289 286 282 279 277 274 272 271 270 268 268 267 265 262 262 259 246 240 244
125 122 116 110 105 94 83 70 54 44 36 28 21 14 9 7 5 2 0 358 356 354 353 349 344 343 342 340 338 337 335 334 334 333 331 330 330 328 325 321 317 315 314 311 310 310 310 310 310 310 312 311 310 310 309 306 303 301 299 295 290 290 293 295 293 291 288 285 282 280 278 276 274 271 268 266 265 265 264 263 260 256 248 245 241
128 124 118 113 106 93 79 65 51 40 31 25 19 14 11 8 6 3 0 358 356 354 352 349 344 340 339 337 335 335 333 331 329 330 329 329 329 328 323 320 317 314 311 308 307 308 309 310 311 312 313 312 310 309 307 305 303 301 298 295 292 294 296 295 294 292 289 285 281 278 276 275 274 270 265 262 262 262 262 261 259 256 251 247 242
129 125 119 113 103 86 71 58 47 36 26 22 19 15 12 8 4 2 360 358 356 354 352 348 341 337 335 334 333 332 331 330 327 327 327 327 327 325 321 318 317 316 313 309 309 309 309 309 309 310 310 310 309 309 308 306 305 302 299 297 296 296 296 295 295 293 290 286 283 279 277 276 273 269 264 261 260 260 259 258 257 258 256 251 245
130 126 119 109 94 80 67 53 42 32 24 20 17 13 8 4 3 2 0 359 356 352 349 345 339 335 333 332 332 330 329 328 326 326 326 327 326 324 321 320 320 318 314 310 308 307 306 306 307 308 309 308 308 309 308 307 306 304 302 300 298 297 295 292 290 287 285 284 281 278 277 275 272 269 265 262 261 260 258 258 257 258 258 251 244
132 125 116 104 91 79 65 51 39 31 24 16 9 7 4 3 5 4 2 360 355 349 346 343 339 334 330 328 328 328 327 326 325 325 327 328 327 325 324 322 320 318 313 307 305 304 303 303 305 307 307 307 307 307 306 305 304 303 302 301 299 296 290 286 285 283 282 281 279 276 274 272 270 267 265 265 266 262 257 255 254 251 247 241 235
131 122 114 104 93 81 65 54 42 29 20 11 6 5 5 4 5 4 0 357 353 347 343 340 335 329 325 323 323 324 325 326 326 328 329 329 328 326 323 321 319 318 314 309 306 304 303 304 305 305 305 305 304 304 303 302 301 301 299 299 298 294 288 284 283 281 279 282 281 276 273 272 271 271 271 270 266 257 247 241 237 231 225 220 214
129 122 116 108 98 85 66 53 39 23 15 12 10 10 9 6 2 0 357 354 350 344 339 335 330 324 322 321 321 322 324 325 326 328 329 329 327 325 323 321 320 319 315 312 310 308 306 305 305 303 303 302 301 300 300 300 301 300 299 298 298 293 287 284 280 276 276 282 282 277 275 276 276 276 274 266 253 242 232 220 208 198 193 186 169
132 128 122 114 101 82 54 35 26 17 12 11 12 12 10 5 359 356 354 348 343 338 333 329 326 323 321 322 321 320 321 322 325 328 329 327 326 325 323 322 322 321 319 316 314 311 309 308 307 305 304 303 302 301 301 302 302 300 299 299 297 292 286 283 278 273 276 281 281 279 279 280 279 275 267 253 238 228 217 204 189 174 169 162 142
136 132 125 116 95 68 45 29 23 18 14 12 11 9 6 1 354 351 351 345 337 334 330 325 323 322 320 319 320 319 318 320 323 325 325 323 323 322 322 322 323 323 321 319 317 314 313 312 311 309 308 307 305 305 305 304 302 300 297 297 295 291 286 282 277 274 278 280 279 280 280 278 275 269 256 241 227 215 202 192 180 168 159 150 134
139 132 124 111 86 63 48 35 26 21 15 12 9 5 2 358 351 348 351 350 341 334 327 322 323 322 318 315 316 315 314 316 319 320 320 319 319 319 319 320 321 322 321 321 319 317 316 315 313 312 312 310 309 307 306 305 303 301 299 298 297 293 287 281 277 278 282 281 278 278 280 276 269 259 241 224 214 202 191 182 173 165 156 144 134
143 134 122 106 87 69 54 43 34 26 17 7 1 359 359 360 358 355 356 354 345 339 331 323 322 322 318 317 316 310 306 309 314 317 318 319 320 320 319 319 321 322 322 323 321 318 317 315 313 312 311 309 308 307 307 307 306 306 305 305 304 300 291 284 282 283 285 283 279 278 279 273 261 243 222 208 197 189 184 178 169 162 152 139 131
145 133 122 107 90 72 59 49 39 29 19 8 360 356 353 355 359 4 4 357 349 349 349 340 332 328 322 321 320 316 310 309 312 314 317 318 320 320 320 321 323 324 325 325 322 318 316 314 312 311 310 307 306 307 310 312 311 310 309 309 309 305 296 289 289 289 288 286 282 279 277 269 252 232 213 199 186 176 173 170 163 158 151 143 138
145 132 121 107 90 73 62 51 39 28 18 10 5 1 355 353 353 356 359 359 357 356 356 352 347 341 331 323 321 318 317 317 317 316 317 318 319 320 319 320 322 324 326 326 321 316 313 311 309 310 310 307 306 311 314 313 311 309 309 309 310 308 302 297 297 295 291 288 284 281 276 264 244 225 208 191 178 169 164 162 158 152 146 141 137
142 130 118 104 91 78 67 55 41 29 17 8 6 6 3 358 352 347 347 352 357 357 353 351 349 344 334 325 319 316 316 318 319 319 319 319 320 320 319 319 320 322 324 324 318 313 311 310 307 307 307 307 310 313 312 309 307 308 308 308 308 307 304 302 300 296 291 287 286 283 274 257 233 212 196 183 174 167 160 157 153 147 141 136 133
138 127 118 111 102 89 78 67 48 27 18 13 10 8 8 4 356 347 343 344 344 343 343 345 346 343 337 332 327 320 318 319 319 319 319 320 320 321 320 319 318 320 322 320 314 311 310 309 307 307 309 311 313 313 311 310 311 310 309 307 307 306 304 303 299 294 290 289 287 281 269 245 217 197 184 175 169 164 158 155 151 146 142 139 135
139 134 129 123 114 105 100 92 62 32 22 21 17 12 8 4 357 349 341 335 332 331 332 336 340 340 338 337 335 330 326 324 322 321 320 320 321 322 322 320 320 321 323 321 316 313 310 309 309 312 315 315 314 313 313 313 313 311 309 308 307 306 305 303 299 294 292 291 287 277 257 228 206 193 181 171 166 162 158 156 154 150 146 142 139
149 147 139 132 128 127 127 111 72 47 35 27 20 13 7 0 351 344 337 330 327 326 328 332 336 338 339 340 339 335 331 329 326 325 324 323 324 326 324 322 321 321 322 322 320 318 316 316 317 318 317 314 313 313 313 312 311 310 310 309 308 308 307 306 302 299 296 292 286 271 241 213 198 187 176 168 164 161 156 154 152 149 147 145 141
156 152 147 146 148 144 135 115 81 55 41 31 20 9 1 353 344 337 332 329 328 327 327 330 334 337 339 341 341 338 334 330 329 328 327 328 331 331 327 324 322 322 321 322 323 322 322 322 321 319 315 313 312 312 313 313 312 312 312 312 311 310 309 307 304 301 297 290 280 258 226 204 191 180 169 160 154 151 149 148 145 143 144 144 140
157 155 154 157 157 148 131 111 89 65 46 31 18 4 353 345 339 334 331 329 328 326 326 328 332 334 335 337 339 339 336 334 335 335 336 337 338 337 333 329 326 323 321 321 323 323 322 321 321 318 316 314 314 314 314 315 316 315 314 315 314 313 312 310 307 302 296 286 270 243 211 191 179 172 165 156 150 146 145 145 142 139 140 142 140
159 157 159 160 156 147 130 112 98 78 51 29 12 356 344 339 337 333 330 328 325 323 324 326 329 332 334 335 337 338 337 337 337 337 337 337 338 338 336 333 330 327 324 323 323 322 320 320 320 319 317 315 315 315 316 318 318 318 317 318 318 317 317 316 312 305 296 281 256 218 189 173 165 162 159 154 149 145 144 144 144 142 141 141 137
162 161 163 161 156 150 139 128 119 94 50 16 358 346 338 336 333 329 326 324 322 321 323 325 327 332 335 335 335 336 335 333 333 334 334 334 335 336 336 335 332 330 327 325 324 323 322 321 321 320 319 318 317 317 319 321 322 322 322 322 322 321 321 319 315 308 296 272 226 184 168 159 155 152 150 148 147 145 143 143 143 143 141 138 132
165 167 167 164 159 154 148 142 135 116 47 345 340 339 334 330 327 324 323 322 319 319 321 323 326 331 333 332 331 332 331 329 329 330 332 332 333 334 334 334 333 331 328 326 325 324 324 323 323 322 321 320 319 320 322 325 327 328 328 328 327 325 323 322 318 311 297 253 181 161 155 152 150 147 144 142 142 142 141 140 141 139 136 135 135
170 171 169 166 162 160 156 153 156 168 222 312 332 331 323 320 323 323 321 319 317 317 319 322 325 328 331 331 330 331 331 330 329 330 330 331 332 333 333 334 334 333 332 329 327 326 325 324 324 323 322 322 323 323 325 328 332 333 333 332 331 329 327 324 321 315 300 200 159 151 147 146 146 144 142 141 141 141 140 139 138 136 135 139 141
174 173 168 164 165 168 169 170 178 191 225 317 326 324 319 320 323 322 316 313 315 317 318 321 324 326 328 330 332 333 333 333 332 331 331 332 333 334 334 335 336 337 337 336 334 333 330 328 326 326 325 325 326 327 329 334 338 339 337 336 335 332 329 326 323 318 297 163 149 145 144 144 143 141 141 141 141 140 138 136 133 132 136 142 143
174 171 167 166 168 173 177 182 192 207 246 300 309 316 321 318 316 315 312 311 314 317 318 321 323 324 325 327 331 334 333 333 333 333 333 334 335 335 336 338 339 341 343 344 345 343 339 335 332 332 332 333 334 336 338 342 343 341 339 339 338 335 331 328 323 315 269 163 151 146 145 145 144 142 142 142 142 140 137 136 134 134 137 141 140
175 172 169 170 174 179 183 187 200 225 251 279 296 309 316 314 310 310 310 311 314 316 318 320 323 322 322 325 328 330 331 330 331 333 334 336 337 339 339 340 341 343 345 349 352 352 349 344 341 340 340 342 344 345 347 349 348 345 343 343 341 337 333 328 321 306 243 179 162 154 149 146 144 143 143 144 145 143 141 140 140 139 140 140 140
178 175 174 176 179 184 188 194 210 230 249 273 293 304 310 309 307 307 309 311 313 314 315 318 320 320 320 322 324 326 327 327 329 331 334 336 339 341 342 343 344 345 348 352 356 357 355 351 348 346 346 348 351 354 356 357 354 351 351 351 347 340 335 330 321 300 233 188 170 160 153 148 146 146 147 147 147 145 143 143 143 142 141 142 143
180 177 177 180 182 187 196 208 226 245 258 276 288 295 300 302 302 303 306 308 309 311 313 315 316 315 316 318 320 322 323 324 326 329 332 336 339 343 345 347 348 349 351 354 358 1 0 358 354 352 352 354 358 2 4 4 1 358 358 359 357 350 343 336 327 302 231 192 175 166 159 153 150 150 151 150 148 145 143 143 143 143 144 145 146
183 181 181 183 186 194 205 217 234 251 264 276 284 287 290 294 298 301 304 305 307 310 311 311 311 312 313 315 318 319 320 321 324 327 331 336 341 344 347 349 351 351 352 354 358 1 3 2 359 357 357 359 4 7 8 9 7 4 2 2 2 359 352 345 337 320 272 213 185 173 166 160 156 155 154 153 151 149 146 144 144 145 146 146 147
188 187 188 191 194 202 212 224 242 258 267 275 281 284 288 294 297 300 303 305 306 309 310 309 309 311 312 313 315 317 318 319 322 326 330 335 341 345 347 349 351 352 353 354 357 360 2 3 2 1 0 2 6 9 11 11 11 9 7 5 3 1 358 356 352 344 317 244 196 182 173 165 159 157 157 156 154 152 149 147 147 148 148 148 148
196 195 196 200 204 212 224 235 251 264 270 274 279 284 289 295 298 300 303 304 306 309 310 310 310 311 312 313 314 315 315 317 319 322 326 331 337 342 345 347 348 350 351 353 355 357 360 1 2 2 3 5 9 11 12 12 13 13 13 11 9 8 7 8 7 3 351 300 198 183 175 167 161 158 157 156 154 152 151 151 152 152 152 150 150
206 205 207 212 218 227 239 248 257 265 269 273 280 285 289 293 296 299 301 302 305 307 308 309 310 310 311 312 313 313 313 314 317 319 322 326 332 337 341 343 344 346 348 349 352 354 357 359 1 2 2 4 8 11 12 12 12 12 14 16 17 18 18 20 21 21 17 20 168 167 165 162 158 154 153 154 155 155 155 155 155 155 154 153 155